Regional Weather Roundup
Issued by NWS Cleveland, OH

Home | Current Version | Previous Version | Text Only | Print | Product List | Glossary Off
Versions: 1 2 3 4 5 6 7 8 9 10 11 12 13 14 15 16 17 18 19 20 21 22 23 24 25 26 27 28 29 30 31 32 33 34 35 36 37 38 39 40 41 42 43 44 45 46 47 48 49 50

000
ASUS41 KCLE 300300
RWRCLE
OHIO REGIONAL WEATHER ROUNDUP
NATIONAL WEATHER SERVICE WILMINGTON, OH
1100 PM EDT TUE JUL 29 2014

NOTE: "FAIR" INDICATES FEW OR NO CLOUDS BELOW 12,000 FEET WITH NO
SIGNIFICANT WEATHER AND/OR OBSTRUCTIONS TO VISIBILITY.

OHZ001>008-015>018-024>027-034-035-043-044-300400-
   NORTHWEST OHIO

CITY           SKY/WX    TMP DP  RH WIND       PRES   REMARKS
DEFIANCE       CLEAR     60  57  89 CALM      30.01R
FINDLAY        MOCLDY    62  57  83 SW5       30.00S
TOLEDO EXPRESS PTCLDY    64  56  75 W6        29.99S
TOLEDO METCALF MOCLDY    66  55  67 W10       29.99S
LIMA           MOCLDY    64  57  78 SW9       30.02S
$$

OHZ009>014-019>023-028>033-038-089-300400-
   NORTHEAST OHIO

CITY           SKY/WX    TMP DP  RH WIND       PRES   REMARKS
CLE-HOPKINS    CLOUDY    63  53  70 S9        30.02S
CLE-LAKEFRONT  CLOUDY    67  53  61 S9        29.98S
CUY CO. ARPT   CLOUDY    64  55  72 SW7       30.01S
LORAIN-ELYRIA  MOCLDY    65  54  67 SW7       30.00F
ASHTABULA      CLOUDY    60  52  74 S6        30.01S
AKRON-CANTON   MOCLDY    61  50  67 SW6       30.03S
WOOSTER        NOT AVBL
MANSFIELD      MOCLDY    61  54  77 S7        30.04R
YOUNGSTOWN     MOCLDY    59  53  80 S3        30.02S
$$

OHZ042-051>053-060>062-070>072-077>081-300400-
  SOUTHWEST OHIO

CITY           SKY/WX    TMP DP  RH WIND       PRES   REMARKS
CINC-COVINGTON PTCLDY    65  56  72 SW6       30.06S
CINC-LUNKEN    PTCLDY    63  57  81 CALM      30.06S
HAMILTON       PTCLDY    59  57  93 CALM      30.06R
DAYTON         NOT AVBL
WRIGHT-PAT AFB MOCLDY    64  57  79 SW5       30.05R
DAYTON GENERAL CLEAR     64  55  72 S5        30.05R
WILMINGTON     MOCLDY    60  54  80 CALM      30.06R
$$

OHZ036-037-039>041-045>050-054>059-063>069-073>076-082>088-300400-
  CENTRAL AND SOUTHEAST OHIO

CITY           SKY/WX    TMP DP  RH WIND       PRES   REMARKS
COLUMBUS       PTCLDY    66  52  60 S5        30.04S
OSU AIRPORT    PTCLDY    64  54  69 S6        30.04S
BOLTON FIELD   NOT AVBL
RICKENBACK AFB NOT AVBL
NEWARK         CLEAR     57  54  89 CALM      30.05S
MARION         PTCLDY    62  55  77 SW8       30.03S
LANCASTER      CLEAR     56  53  90 CALM      30.06R
ZANESVILLE     CLEAR     57  52  83 CALM      30.05S
NEW PHILLY     MOCLDY    56  54  93 SE3       30.05R
$$


USA.gov is the U.S. government's official web portal to all federal, state and local government web resources and services.